Flag Weather past 2 weeks in Ansbach, Bavaria, Germany

Now
36 °F

Low clouds.


Feels Like: 29 °F
Forecast: 34 / 41 °F
Wind: 8 mph from Southeast

Location: Ansbach / Katterbach

Current Time: Nov 27, 2014 at 1:28:28 AM

Latest Report: Nov 27, 2014 at 12:58 AM


Visibility: N/A

Pressure: 30.03 "Hg

Humidity: 100%

Dew point: 36 °F

Location of AnsbachLocation

Historic Weather in Ansbach — Graph

°F

Ansbach temperature yesterday

Maximum temperature yesterday: 39 °F (at 2:58 PM)
Minimum temperature yesterday: 31 °F (at 4:58 AM)
Average temperature yesterday: 35 °F

Past Weeks' High & Low Weather Summary

 TemperatureHumidityPressure
High50 °F (Nov 15, 1:58 PM)100% (Nov 11, 11:58 PM)30.38 "Hg (Nov 11, 11:58 PM)
Low31 °F (Nov 26, 4:58 AM)81% (Nov 21, 1:58 PM)29.49 "Hg (Nov 16, 3:59 AM)
Average41 °F99%30.03 "Hg
* Reported Nov 11 11:58 PM — Nov 26 11:58 PM, Ansbach, Weather by CustomWeather, © 2014

Note: Actual official high and low records may vary slightly from our data, if they occured in-between our weather recording intervals... More about our weather records

Advertising

Ansbach weather history for previous 24 hours

 ConditionsComfort  
Time TempWeatherWind HumidityBarometerVisibility
11:58 PM
Nov 26
36 °FLow clouds.9 mph100%30.04 "HgN/A
10:58 PM36 °FOvercast.8 mph100%30.06 "HgN/A
9:58 PM36 °FOvercast.9 mph100%30.07 "HgN/A
8:58 PM36 °FOvercast.9 mph100%30.08 "HgN/A
7:58 PM36 °FMostly cloudy.7 mph100%30.09 "HgN/A
6:58 PM37 °FOvercast.8 mph97%30.09 "HgN/A
5:58 PM37 °FOvercast.8 mph93%30.09 "HgN/A
4:58 PM37 °FMostly cloudy.6 mph96%30.09 "HgN/A
3:58 PM38 °FOvercast.10 mph91%30.10 "HgN/A
2:58 PM39 °FMore clouds than sun.10 mph87%30.10 "HgN/A
1:58 PM38 °FOvercast.7 mph90%30.11 "HgN/A
12:58 PM38 °FOvercast.8 mph90%30.13 "HgN/A
11:58 AM37 °FOvercast.7 mph93%30.13 "HgN/A
10:58 AM36 °FScattered clouds.7 mph100%30.15 "HgN/A
9:58 AM34 °FPassing clouds.8 mph100%30.17 "HgN/A
8:58 AM33 °FScattered clouds.6 mph100%30.18 "HgN/A
7:58 AM32 °FMostly cloudy.7 mph100%30.17 "HgN/A
6:58 AM32 °FPassing clouds.6 mph100%30.17 "HgN/A
5:58 AM32 °FPartly cloudy.7 mph100%30.17 "HgN/A
4:58 AM31 °FOvercast.6 mph100%30.17 "HgN/A
3:58 AM32 °FOvercast.6 mph100%30.18 "HgN/A
2:58 AM33 °FOvercast.6 mph100%30.19 "HgN/A
1:58 AM33 °FPassing clouds.6 mph100%30.22 "HgN/A
Weather by CustomWeather, © 2014

See weather overviewHow to use our weather pages